CAPE
1978 2052 1678 2390 2327 2460 2505 2768 2453 2428 2632 2614 2490 2609 2756 2739 2710 2746 2751 2534 2360 1932 2242 2054 2058 2246 2044 1983 2137 2160 2293 2396 2482 2447 2358 2381 2446 2398 2556 2710 2718 2613 2744 2696 2756 2911 3078 3213 3352 3509 3606 3856 4031 3979 4208 4260 4316 4221 4083 3976 3948 3985 3820 3679 3546 3452 3510 3488 3740 3919 3777 3856 3953 3825 3788 3738 3583 3710 3825 3541 4016 3517 3705 3896 3812
1866 1862 1665 2188 2325 2522 2750 2722 2529 2532 2535 2493 2418 2484 2597 2805 2842 2705 2608 2385 2242 2164 2180 2146 2106 2182 2089 2180 2279 2143 2103 2191 2278 2309 2362 2538 2524 2476 2512 2761 2948 2722 2686 2698 2788 2955 3105 3245 3437 3548 3646 3686 3911 4026 4135 4180 4128 4086 4103 4097 4010 3883 3766 3670 3570 3650 3534 3600 3594 3667 3826 3624 4025 4065 4012 3935 3974 4065 4138 4117 4083 3135 3379 3420 3737
1603 1578 1790 2113 2325 2447 2571 2661 2792 2724 2521 2442 2015 2360 2510 2759 2791 2631 2615 2300 2186 2248 2249 2256 2264 2187 2227 2136 2057 1852 2093 2210 2274 2263 2315 2417 2538 2513 2386 2740 2856 2789 2710 2657 2779 2800 2939 3255 3388 3326 3561 3761 3732 3843 4019 4119 4064 3985 4048 4110 3987 3868 3767 3762 3678 3645 3614 3725 3711 3628 3648 3588 3585 4054 3964 3972 3730 3494 3266 3445 3493 3627 3299 3394 3464
1619 1324 1540 2244 2410 2394 2402 2359 2431 2718 2486 2325 2305 1899 2310 2436 2459 2614 2555 2284 2217 2311 2316 2387 2568 2560 2458 2378 2352 2131 1991 2158 2323 2349 2431 2652 2661 2679 2691 2846 2946 2828 2646 2370 2535 2889 2998 3280 3264 3313 3431 3677 3787 3856 3873 3918 4009 3991 4012 3959 3961 3958 3771 3755 3744 3655 3723 3566 3598 3560 3652 3642 3756 3819 3927 3739 3196 2975 2906 3386 3563 3452 3479 3429 3548
1574 1521 1579 1870 2318 2365 2522 2375 2450 2791 2280 2421 2163 2230 2357 2451 2345 2416 2415 2384 2326 2421 2427 2316 2499 2627 2706 2617 2484 2474 2295 2149 2382 2370 2582 2620 2446 2511 2708 2450 2538 2713 2459 2762 2740 2736 2797 2949 3103 3210 3424 3608 3752 3778 3770 3822 3910 3901 3829 3891 3860 3935 3876 3720 3663 3702 3672 3614 3442 3216 3445 3358 3540 3735 3661 2952 2673 2599 2609 3129 3594 3776 3461 3620 3558
1519 1560 1379 1704 2205 2252 2384 2443 2200 2196 2267 2391 2404 2317 2256 2506 2367 2438 2519 2588 2660 2650 2642 2560 2745 2936 2985 2949 2964 2884 2757 2767 2676 2702 2745 2718 2808 2996 2898 2794 2821 2850 2748 2499 2320 2896 2833 2936 2964 2946 3089 3279 3499 3627 3692 3607 3675 3580 3756 3690 3656 3679 3731 3686 3672 3700 3676 3265 3279 3687 3254 2778 3141 3620 3179 2785 2536 2188 2516 2815 2985 3347 3374 3648 3909
1145 1026 952 1454 1594 2031 2406 2464 2251 2199 2630 2608 2623 2277 2134 2118 2544 2634 2637 2628 2717 2653 2760 2850 2963 3174 3201 3178 3140 3191 3309 3233 3131 3053 3142 3142 3206 3085 2965 2998 3179 3054 2901 2753 3036 2962 2921 2775 2815 2865 2900 3027 3313 3397 3406 3430 3546 3588 3570 3518 3514 3553 3623 3726 3742 3719 3684 3436 3829 3196 2794 2500 2684 2724 3107 2451 2179 2199 2766 2930 2413 2396 2616 2978 3160
916 1012 965 1292 1637 2214 2497 2364 2350 2447 2594 2575 2516 2661 2554 2806 2541 2320 2502 2516 2667 2603 2750 2942 2911 2726 2817 2901 2915 3030 3256 3301 3247 3221 3231 3086 2992 2702 3290 3016 3020 2874 3271 3070 2777 2788 2808 2931 2927 2901 2957 3067 3168 3271 3254 3164 3327 3503 3493 3482 3488 3562 3638 3655 3794 3749 3898 2952 3280 3073 2900 2058 2117 2652 3266 2337 2378 2121 2630 2772 2401 2310 2342 2638 2963
1046 1000 1109 1742 2006 2399 2531 2394 2325 2498 2543 2686 2575 2507 2514 2809 2258 2068 2320 2677 2641 2934 2782 2686 2791 2760 2854 2829 2791 2870 2860 2865 2903 2887 2940 2885 2844 2918 2920 2906 2953 3042 2918 2809 2773 2696 2836 2773 2825 2863 2982 3067 3142 3170 3229 3303 3357 3370 3462 3563 3472 3354 3276 3078 3420 2995 3158 3247 2519 2100 2074 2180 1953 2482 2912 2589 2298 2150 2356 2732 2681 2524 2363 2765 3143
1162 1360 1542 1843 1973 2092 1923 2053 2134 2374 2514 2509 2605 2583 2327 2492 1972 1778 2246 2743 2629 2791 2752 2651 2768 2730 2693 2769 2802 2826 2880 2972 2873 2958 2765 2886 2767 2770 2852 2850 2840 2813 2828 2778 2730 2804 2856 2878 2906 2926 2981 3079 3143 3161 3166 3164 3199 3310 3338 3471 3504 3425 3380 3236 3008 2616 2428 2792 2582 2100 2114 2655 2096 2686 2696 2754 2374 2193 2770 3304 2783 2800 2518 3128 3487
1046 1575 1726 1804 2065 2146 2262 2173 2089 2381 2479 2540 2708 2561 2118 2266 1792 1501 2176 2488 2429 2664 2650 2691 2634 2682 2656 2907 2923 2952 3035 3089 3000 2918 2761 2773 2795 2789 2794 2840 2906 2994 2985 2910 2911 2900 2941 3000 2986 3053 3062 2962 2989 3063 3059 3035 3071 3363 3341 3319 3415 3422 3460 3376 3269 2899 2738 2321 2326 1764 1877 3461 1789 2468 3421 3130 2721 2808 3320 3337 3268 3737 3551 3656 3641
1665 1648 1557 1895 2233 2222 2225 2030 2200 2368 2448 2291 2383 2327 2224 2065 1880 1792 2169 2577 2664 2637 2482 2484 2872 3337 3131 3129 3068 2949 3144 3204 3114 3006 2885 2815 2861 2819 2895 2890 2975 3070 2979 2983 2909 2970 2969 3052 3114 3074 3077 3026 2988 3054 3038 2998 3000 3143 3268 3279 3341 3231 3375 3284 3194 3284 3143 2837 2276 1273 1258 3019 2662 2706 3824 3625 3105 3244 3339 3156 3510 3872 4045 3859 3700
1448 1496 1641 2035 2143 2286 2265 2169 2175 2272 2356 2409 2584 2591 2363 1890 2110 2185 2819 2675 2612 2572 2434 2846 3227 3204 3217 3257 3216 2978 3020 3491 3337 3164 3062 2876 2872 2940 2938 2900 2956 2929 3007 2995 3124 3069 2968 2890 2907 2948 2829 2973 3198 3091 3062 3041 2992 3096 3022 3290 3313 3457 3438 3444 3188 3139 3158 2948 2077 690 1214 1976 2657 4084 3841 3617 3427 3194 2929 2896 3248 3320 3808 3504 3488
1449 1710 1792 1889 2128 2292 2222 2140 2190 2157 2035 2435 2428 2272 2253 2196 2258 2628 2712 2599 2494 2603 2831 3168 3293 3197 3064 3195 3263 3286 3204 3121 3250 3202 2816 3055 2892 2791 3034 3036 2970 3062 3098 3156 3220 3216 3134 3136 3142 3181 3023 2850 2724 2971 3100 3112 3154 3167 3235 3158 3312 3332 3229 3370 3235 3146 2802 2823 2116 1441 1140 2712 3317 4119 3735 3604 3435 3163 2937 2786 2825 2968 3248 2967 3146
1465 1414 1667 1784 1730 2033 2171 2179 2232 2098 2281 2440 2382 2315 2203 2576 2180 2542 2668 2714 2781 2851 3047 3030 3147 3179 3066 2921 3059 3202 3145 2953 2896 2989 2982 2770 2560 2847 2987 3059 3042 3067 3123 3191 3209 3216 3214 3199 3203 3245 3279 3143 3063 2744 2917 2934 3249 3202 3027 3180 3184 3180 3163 3267 2928 2828 2554 2258 2133 1579 999 2163 3448 3978 3549 3406 3246 3106 2997 2806 2812 2874 2901 2839 3054
1344 1373 1371 1187 1556 1935 2057 2362 2321 2151 2300 2286 2324 1865 2080 2091 2693 2454 2807 2596 2909 3290 3056 3000 3043 3040 2956 2912 2982 2909 2821 2768 2888 2721 2417 2828 2632 2831 2975 3060 3071 3161 3252 3290 3278 3281 3294 3343 3288 3285 3214 3247 3199 3221 3214 3090 3248 3174 3199 3185 3221 3075 3283 3262 3293 3265 2845 2843 2559 2260 1659 1935 3878 3519 3471 3177 3020 3182 2991 2914 2884 2958 2885 2869 3011
1282 1519 1381 1011 1224 1664 1739 2070 2220 2297 2412 2556 2412 2380 2352 2366 2413 2435 2562 2818 2913 3018 3028 2646 2994 3105 2875 2953 3004 2866 2810 2786 2716 2511 2482 2774 2701 2878 2842 2991 3149 3088 3073 3188 3209 3347 3422 3406 3339 3363 3354 3450 3462 3494 3473 3462 3358 3296 3208 3263 3207 3219 2930 3413 2695 2959 2748 2501 2422 2327 2384 2108 3628 3501 3409 3060 3039 3237 3107 2965 2919 2993 3055 2946 2884
1564 1624 1393 1338 1310 1608 1750 1771 2018 2246 2420 2377 2549 2595 2466 2363 2568 2681 2654 2928 2292 2618 2558 2594 2726 2853 3087 2922 2877 2905 2892 2794 2521 2664 2738 2659 2778 2790 2794 2906 3057 2954 3064 3102 3075 3272 3185 3161 3108 3099 3176 3275 3275 3332 3313 3446 3371 3507 3520 3513 3316 3340 3250 3552 3162 3189 2789 2885 2172 1982 2178 2098 3645 3804 3364 3307 3088 3104 3078 2982 2838 2812 2666 2871 2867
1656 1657 1489 1543 1611 1490 1232 1438 1900 2030 2290 2486 2535 2414 2409 2502 2425 2443 2632 2703 2722 2448 2553 2733 2791 2686 2762 3027 3007 3197 3145 2876 2800 2712 2587 2821 2814 2838 2865 2899 2931 3106 3127 3058 3034 2956 2934 3112 3106 3227 3250 3188 3370 3335 3361 3222 3250 3542 3583 3588 3614 3533 3611 3694 3074 2218 2892 2967 2413 2228 2208 2093 3730 3626 3088 3217 3037 3112 3030 2902 2868 2795 2712 2676 2639
1788 1636 1732 1828 1751 1627 1601 1730 1998 2077 2233 2411 2655 2385 2278 2278 2811 2576 2653 2778 2794 2871 2782 2814 2865 2955 2953 2852 2985 2929 2934 3054 3055 3026 2938 2866 2880 2701 2954 2843 2989 3110 3007 2990 3113 3081 3104 3064 3248 3201 3358 3295 3216 3300 3498 3534 3429 3462 3560 3596 3542 3591 3256 3115 2892 2669 2795 2540 2502 2243 2225 2996 3748 3338 3069 3277 2572 2919 2863 2804 2890 2916 2862 2674 2628
1713 1643 1688 1773 1962 1927 1787 1972 2232 2288 2366 2368 2525 2424 2584 2541 2582 2822 2702 2552 2741 2650 2694 2767 2736 2800 2837 3015 2846 2950 3169 2934 3022 2642 3036 3011 2914 2688 2768 2848 2980 3007 2999 3022 3034 3107 3179 3228 3329 3300 3415 3345 3395 3297 3410 3740 3635 3855 3975 4034 3972 3643 3344 2802 3380 3518 2888 2306 2813 1678 1953 4610 3338 3550 3361 3290 2940 2843 2846 2859 2805 2903 2881 2751 2773
1279 1568 1830 1806 1962 2020 2030 2016 2159 2354 2388 2183 2290 2158 2559 2530 2564 2693 2757 2579 2664 2536 2841 2919 2862 3136 2952 3183 3302 3454 3142 2972 2614 2378 2699 2938 2894 3053 2856 2696 2879 2943 2880 3026 2987 3112 3258 3390 3506 3397 3371 3563 3470 3608 3693 3658 4194 4088 4140 4039 3968 3813 3330 2945 2900 2766 2543 2435 2961 2120 1782 3255 3742 4031 3769 3293 3241 2887 2740 2763 2795 2844 2847 2803 2781
1303 1393 1599 1950 1945 2002 1970 1910 2031 2384 2393 2278 2255 2258 2571 2686 2706 2717 2645 2597 2749 2886 2780 2870 3004 3473 3293 3293 3528 3068 2933 3165 3053 1693 2378 2593 2390 3025 2919 2677 2933 2558 3134 2845 3161 3448 3404 3467 3602 3684 3744 3561 3852 3895 3904 3770 3675 4183 3858 3996 3869 3411 3112 2466 2723 2997 2367 2742 1928 1895 2402 3256 4537 4466 4013 3670 3488 3275 3007 2769 2589 2792 2776 2827 2688
1210 1174 1551 2014 1649 1764 1875 1932 2161 2041 2206 2121 2000 2152 2328 2634 2492 2563 2609 3014 2962 2717 3091 3017 3314 3142 3302 3069 3319 3428 3253 3420 2534 2334 2668 2568 2759 2728 2821 2839 2833 2837 2848 3025 3273 3266 3699 3650 3676 3813 3898 3498 3619 3504 4273 3532 3171 3900 4079 3793 3497 3123 2731 2943 2647 2513 2804 3171 2527 2814 3118 3721 4731 4491 4219 3952 3663 3740 3446 3227 2952 2941 2872 2857 2808
1184 1211 1478 1729 1838 1774 1707 1924 2198 2203 2284 2208 1848 1657 2051 2128 2202 2416 2498 2631 2599 3210 3136 2839 3079 3574 3421 3534 3180 3122 2909 3064 3046 2867 2736 2912 2739 2495 2805 2986 3128 3296 3379 3418 3266 3031 3435 3328 3388 3763 3674 2947 2526 3780 4570 3777 4251 3202 3446 4148 4648 2922 2372 2651 3151 2852 2581 2955 2709 3922 4259 4320 4502 4488 4132 3840 3982 3852 3570 3508 3170 3217 3140 3112 2969
911 1277 1484 1683 1629 1512 1702 1803 1940 2076 2243 1891 1567 1804 2202 1983 2073 2389 2303 2660 2973 2704 2866 3429 2977 3443 3784 2808 2909 2848 2591 2896 1945 1348 1945 2091 2821 1896 2230 2291 3051 3041 3193 3203 3336 3528 3541 3252 2965 3005 3002 4462 2364 2986 2397 3131 2664 3598 4080 2760 3064 2488 3059 2910 2457 2243 2093 2334 2370 4294 4301 5040 4896 4755 4319 4059 3949 3926 3884 3686 3256 3108 3115 3010 2798
1292 978 1222 1435 1318 1389 1062 1800 1752 2192 2067 1940 2029 1894 2012 1934 2057 2154 2240 2424 2895 2766 2549 3060 2827 3822 3413 3142 2508 2304 2139 2285 2215 1670 2689 2555 2490 2302 2144 1938 2685 3121 3078 2918 3006 3284 3500 3200 2928 2890 2945 2732 2166 3021 1939 2232 1998 2011 2667 2408 2280 2730 2186 2060 2060 1879 2060 2464 3358 2942 3622 3877 4218 4936 4653 4252 4107 3937 3839 3803 3314 3206 2939 2921 2850
1221 1007 1100 987 1227 1186 1331 1363 1886 1659 2260 1953 2114 1848 1870 1768 1958 2335 2288 2451 2554 2766 2286 3058 2861 3556 3751 3173 2882 1586 1310 1226 1385 2329 2571 2237 2083 2314 2542 2192 2208 2654 2855 2174 2233 2536 2229 2652 2362 1894 2131 2102 984 1820 1141 1947 1641 2774 2126 2319 1714 1574 1819 1932 2135 2150 2364 1958 3056 3019 3681 4032 4574 5187 4907 4640 4426 4182 3943 3858 3697 3501 3138 2973 2931
1064 1416 1229 1030 804 974 1578 1312 1635 1797 2016 1912 1788 1846 1916 1921 1970 1966 2360 2349 2645 2614 2707 2640 2922 3044 3393 3290 2725 1175 459 598 1519 1504 2154 1619 2091 1534 1893 1878 1484 1010 1607 1134 729 1180 1508 1960 2405 1880 1280 1753 2100 1344 1471 1270 1520 1743 1489 1400 978 2116 2031 1674 1614 1130 2253 2354 1660 1990 2916 5186 5336 4938 5274 4921 4703 4547 4183 3914 3817 3773 3537 3260 3170
724 955 1409 1458 1109 926 798 1414 1609 1816 1657 1771 2057 1912 2139 1972 2238 2290 2261 2407 2373 2037 2919 2590 2861 2903 2484 2972 1126 1348 473 542 899 1407 1633 2128 1832 1059 1566 791 1200 1367 1167 582 1298 1010 604 2188 1300 940 1199 2207 1522 1197 1802 960 1846 1667 1720 990 2074 1796 1504 1430 1545 1957 2442 2785 2322 2403 2545 5391 5591 5900 4956 3372 2132 2373 2636 3048 3914 3913 3923 3687 3515
940 876 1031 1210 1908 1256 1250 1493 1925 2480 2030 1740 1909 1998 2344 2258 2282 2012 2047 2156 2084 2784 2882 2635 2374 2478 2286 3082 2697 2119 2309 580 378 1756 1633 2104 1988 1925 1718 1335 1435 750 1063 513 1045 1492 1414 1055 752 1770 1627 1351 878 1015 1425 1458 1442 1164 1376 1299 1281 989 1260 946 1040 2106 2760 2503 2218 2445 2128 3002 5178 5621 5308 3664 1969 1945 1882 2175 3243 3959 3848 3736 3533
666 678 907 1153 1424 1066 1634 1650 1657 1967 2067 1575 2213 2156 1988 2211 2390 1941 1957 2050 2556 2598 2476 2266 2449 2096 2540 3055 2948 2332 2371 2837 2362 1407 1334 1972 1549 1685 1636 1362 885 1534 1174 738 1700 1954 2223 1118 1371 1643 1902 3007 2220 1902 1869 1160 968 666 1059 1239 1085 1113 994 1231 2639 1582 2184 2078 3459 2746 3262 2837 3362 5066 5450 5367 4053 3340 3592 3790 3958 3842 4014 3721 3159
204 758 921 1005 1212 1249 1344 1368 1675 1736 1702 1396 1980 1878 1916 1868 1930 1832 2119 1967 2350 2468 2240 1921 1955 2167 3467 3467 3331 2998 3727 2577 3127 2918 3251 1789 1582 1395 900 1241 1392 1475 1463 1081 1861 2147 1649 1960 2315 1923 2985 2475 2164 2155 1662 1658 1620 1851 1516 1548 3044 2306 1766 3039 3694 3018 2366 2410 3272 2565 2338 2628 1793 2291 3017 3977 5363 5087 4760 4606 4473 4311 3284 3176 2753
114 198 257 870 648 936 1338 1378 1226 1696 1777 1410 2127 2051 1855 1732 2003 1478 2221 2089 1956 2357 2008 1879 2085 2636 3031 3379 3271 3218 2754 3129 2990 2965 2993 1855 1332 1502 1385 1198 1110 1513 1976 2536 2242 2254 1592 2396 1391 2096 3565 3230 2256 2228 2072 1412 1227 1672 2090 2276 2188 2623 2697 3183 3258 3136 2232 1601 1970 2439 1670 2229 2163 1797 1676 2918 3901 4092 4035 4459 4403 4165 3443 3421 2900
363 277 259 290 271 1112 1080 1231 1151 1434 1978 1681 2408 2138 2199 1390 1718 1516 1674 2409 1938 1819 1592 1737 1523 1928 2549 3123 3455 3390 3352 2795 3113 3239 2132 2418 1446 1426 1429 1862 916 1882 1682 2558 1974 1830 1756 1958 2828 2517 2516 2439 3193 3697 2612 1483 996 1746 2017 2675 2269 2885 3639 3431 3625 2652 1936 2353 2420 1537 2640 2676 2069 1147 1337 1543 1662 2236 3563 3407 3266 3544 3276 3023 2895
452 217 183 373 334 397 698 750 1156 872 1176 1920 2140 2085 2179 2471 1741 1642 1927 2419 1216 1229 1377 1177 1157 1642 2015 2916 3189 3291 3082 3081 3258 3036 3162 2136 1746 1382 1711 2337 2917 3098 2885 2978 4543 2436 2019 2197 2880 2392 2780 1884 2526 2007 2423 1480 1887 1254 2020 2067 2941 3925 3905 3765 3479 2781 2532 3069 2371 2305 1608 1860 1452 1227 1780 1544 2124 1862 1378 1941 3325 3236 3154 3259 3320
383 266 309 300 328 595 560 584 728 884 1107 1470 1995 2170 2474 2254 2126 1774 1835 2080 1392 1666 1734 1335 778 1164 1684 2215 2942 3096 3242 3333 3318 3269 3271 2988 1792 1636 1568 1452 2903 2676 2646 2532 2070 2271 1989 1642 2985 3315 3101 3564 2650 1792 1483 2247 1542 966 1129 2198 3645 3639 3221 3938 3309 2566 2755 2994 2726 2355 2322 2390 2128 2254 1753 1259 1380 1906 1910 2149 2429 2710 2640 2965 3324
568 346 499 292 494 648 430 510 842 924 1676 2283 2124 1890 2088 2123 1863 1970 2103 1917 1775 1374 1605 1620 1344 522 816 1538 2799 3137 3359 3193 3357 3520 3640 2753 1932 1709 1458 1922 2213 2391 2996 2050 2155 1287 2118 2323 3495 2970 3130 3442 3102 2502 1850 1762 1346 854 1267 2576 3525 4212 4002 3747 3771 3803 3251 2766 3084 2955 3111 2841 1917 2266 2343 2107 2079 1402 1330 1714 2418 2753 2741 2375 2623
860 920 766 1014 1387 1034 719 1740 918 1424 2113 2593 2494 2227 1688 2499 1553 2126 1705 2383 1935 1273 1606 1650 1203 878 888 1995 3214 2903 3254 3311 3292 3683 3708 2758 2440 2216 2206 3062 2597 3014 3035 2375 1695 1892 2580 2119 2214 3236 3562 3648 3693 2822 2411 2476 1136 781 2076 2043 1995 3362 3811 3649 4561 3791 3225 3235 3172 3035 3072 2950 2625 2369 2513 2754 2206 1793 2220 2538 2448 2544 2511 2489 2388
1397 1004 2304 1787 964 1214 745 1936 1574 2062 2259 2718 2272 1926 1420 2149 1302 1315 1834 2132 1676 1641 1693 1322 899 774 1085 2012 3136 3051 3139 3305 3241 3474 3506 3183 2479 2258 2596 1917 2750 2845 2806 1938 1769 2512 2682 2595 2956 2987 3850 3006 2700 2605 2060 1939 1924 2478 2596 2080 2004 2148 2503 2432 2602 2720 3397 3325 3429 3106 2776 2715 2657 2318 2466 2511 2557 2594 2344 2282 2367 2397 2222 2253 2372
1311 1447 1458 1135 946 930 1078 1400 2776 1988 2128 2309 2360 1880 1444 1956 1648 1136 1710 1605 1755 1328 1149 1200 1060 828 988 1721 3201 2394 3166 3093 3229 3128 3244 3230 3134 3259 2392 2414 2233 2626 2938 2724 1889 1829 3508 3004 3279 4141 2532 3026 2789 2679 2127 1977 2641 2858 2821 2074 2311 2407 1954 2452 2018 2701 2830 2924 3540 3807 3591 3364 3032 2424 2418 2432 2562 2450 2274 1864 1763 1785 1774 1676 1981
1402 1156 1302 1656 1440 1416 1315 1757 2348 3622 2372 2197 2451 1963 1778 1628 1528 952 1114 1006 1609 1742 1276 1039 963 990 1967 3235 3339 2395 2802 3081 3208 3087 3276 3014 2885 2428 2808 3439 3294 3414 3362 2844 2452 2883 3418 3072 1994 3000 3696 3315 2990 2434 1802 1634 2527 2336 3124 3404 3808 2908 2029 1700 1460 3024 2653 1878 2539 3799 3553 3075 3724 2715 2378 2231 2366 2244 2147 1605 1478 1440 1550 1920 2378
1210 1514 1342 1909 1700 1638 1678 1790 2576 3385 2956 2044 2804 2296 1943 1795 1274 1311 840 1525 1392 1181 1126 1083 1052 725 798 2395 3122 3410 3045 2812 2848 3026 2880 2482 2592 2566 2855 2852 2970 3245 2969 3518 3230 3372 3263 2328 2799 2605 2963 2388 2663 1562 2681 2804 1575 2103 2746 3156 2080 1931 2946 2611 1692 2307 1851 2524 2382 2391 3027 2296 3272 3120 2949 2512 2544 2397 2039 1558 1508 1638 1687 2212 2666
1685 1987 1503 2003 2582 2154 1991 1668 2337 2390 3021 2885 3000 2210 2260 2728 2576 2170 1511 2377 2920 2450 1919 1896 1529 1168 1002 919 2840 3120 2835 2296 2028 1912 2122 2232 2672 2758 2000 2221 3350 3438 2933 3450 3417 2565 3086 3513 2535 2330 2668 2597 1889 1918 1882 2081 2264 3044 3488 2588 2210 1384 1611 1822 1490 1504 1287 1615 2509 2281 1251 2286 2624 2271 2186 1947 1943 2040 2201 2059 1666 1795 1864 2278 2796
2030 1985 1909 2077 2575 2796 2502 1906 2464 2569 3006 2985 3214 3933 3467 3467 3314 3441 3137 2688 2910 2481 1922 1579 1250 1883 1178 1206 1258 2043 2458 2150 1918 2072 1889 2023 2503 2655 2524 2349 3123 3244 2715 3394 3452 2459 2104 2209 2253 3325 3173 2037 1493 1807 1918 1460 2028 3000 2803 3198 2270 2022 1730 1766 1545 1928 1894 1929 1891 1505 1870 2072 1726 1602 1666 1841 2104 1844 1993 1716 1885 2206 2237 2752 2740
2026 1988 2151 2114 2141 2766 2993 2495 3010 3069 3038 2938 3190 3533 3556 2844 2726 2852 3019 2803 2977 2391 2303 1706 1227 1524 1453 2263 1933 1315 1471 1810 1828 1944 1574 1652 2172 2173 2194 2082 1958 3813 3653 2648 2055 2095 2291 1710 1236 2809 2290 2108 3374 2921 2075 1834 1572 3060 2724 3150 3169 2266 1488 1880 1608 1980 1691 2243 2881 1900 1390 1667 1417 1027 1423 1911 2008 1999 2146 2180 2501 2557 2738 2794 2544
1956 1710 1899 1905 1914 2340 2936 3057 3150 3185 2875 3006 3013 2972 2693 2963 2659 2508 2287 2573 2459 2937 2950 3086 2066 2164 2152 2502 2501 1532 2067 1396 901 1466 1491 1662 1956 2107 2362 2298 2050 3205 3370 3340 2941 1689 1355 1348 2082 1831 2259 3831 3597 3588 2360 1265 2478 2393 2077 2394 2786 1804 1773 2464 2397 1404 1430 3794 3245 1498 2122 1540 1591 2136 1556 1675 2031 2359 2131 2199 2214 1926 1899 2319 2702
1230 1802 1874 1980 2282 2653 2642 2899 2934 2986 2793 2890 2934 2865 2959 2857 2592 2321 2631 2266 1331 2285 2696 2854 2444 2218 2311 1940 2312 2721 1674 1588 1513 1497 1696 1566 1836 2234 2378 2159 2088 1894 2465 2593 2125 1724 1533 2180 2520 2911 3905 4958 3537 2681 2386 2704 3241 3197 1941 2005 2424 2369 1466 1858 2124 1878 1395 1453 1880 1893 2072 2392 3264 3034 2510 2822 3009 2378 2077 2237 2109 1984 1514 1686 2312
1290 584 1912 1762 1867 2400 2956 2329 2727 2556 2668 2639 2726 2656 2966 2801 2610 2307 1761 1815 2474 2347 2200 2283 2254 2463 1922 2354 2470 2100 2322 1868 1888 1519 1410 1202 1700 1611 2013 2180 2059 2058 2195 1920 1672 1367 1338 2252 2117 2706 3897 3753 3339 2787 3734 3956 2747 2376 2704 3174 2316 2306 1838 2137 1923 1936 2194 2206 2028 2059 2618 3523 3629 3144 2489 3171 2941 3116 2635 2264 1977 1669 1770 1884 1864
1152 750 1023 1502 1626 2514 2577 2608 2389 2636 2553 2631 2687 2663 2450 2735 2739 2635 2342 2405 2148 2591 2547 2299 2268 2367 2296 2287 2403 3439 2057 1820 1882 1770 2068 1366 1250 1482 1384 1312 1669 1320 1651 1486 1335 1576 1837 2376 2587 2354 2864 3551 4705 4294 3265 3992 3098 2420 1216 3208 3694 3202 2692 2119 1825 1622 1923 2223 1526 2381 2196 1569 2387 2821 2321 2354 2266 2770 2614 1972 1796 1942 1597 1152 1567
1370 914 1355 1348 2055 2600 2609 2175 2480 2654 2343 2303 2310 2200 2048 2214 2090 2269 2340 2471 2552 2164 1955 1929 2255 2754 2517 2162 2378 2693 2544 2457 1520 1770 1811 1346 988 1156 799 941 1170 1715 1764 1615 1716 900 976 928 785 1430 2660 3324 3109 3318 2574 2618 2967 3632 2112 3355 3456 1681 2384 2049 2541 2752 2855 2137 2443 2657 1539 1938 2582 2337 2309 2148 2272 2246 2090 1821 1679 1482 1378 1238 1452
Wind_Speed
17 19 18 18 19 20 20 21 20 20 19 19 17 15 14 16 16 17 17 17 17 17 16 15 14 14 12 11 10 8 6 7 8 7 6 6 7 8 8 8 7 6 5 5 5 5 4 4 5 5 6 6 7 7 8 8 8 9 10 10 11 12 13 13 14 14 14 13 13 14 13 13 14 13 13 13 12 12 10 8 10 8 7 8 12
19 19 17 18 19 20 20 20 22 22 22 21 19 17 16 16 16 17 18 17 17 16 15 15 14 13 12 12 10 8 6 5 5 5 5 6 6 6 6 6 5 5 5 5 5 5 5 5 5 5 5 6 6 7 8 9 9 9 10 11 11 13 13 14 15 15 15 14 14 14 15 15 14 13 14 14 13 10 7 3 4 5 5 11 13
20 19 18 19 20 20 21 21 22 24 24 23 20 18 16 17 16 17 19 18 16 15 14 12 14 15 12 11 10 8 6 5 4 5 6 6 5 5 4 4 3 3 4 5 6 6 6 5 5 5 5 6 6 7 8 8 9 9 10 10 12 12 13 15 15 15 15 15 14 14 15 16 15 14 14 15 15 12 4 1 7 15 8 14 12
21 19 19 20 20 20 21 21 23 24 24 23 23 20 19 19 17 17 17 17 16 14 13 12 12 13 13 12 9 7 7 5 4 4 5 4 4 3 3 3 3 3 4 5 6 6 6 5 5 5 5 6 6 7 7 8 9 9 10 11 12 13 14 14 15 15 16 16 15 14 11 11 14 16 16 20 19 6 5 8 12 13 13 12 12
21 19 18 19 19 20 20 21 23 23 24 23 24 21 21 19 17 17 16 16 16 14 14 13 10 10 11 11 9 7 6 6 5 5 5 4 3 3 2 2 3 4 4 5 6 7 6 6 5 5 5 5 6 6 7 8 9 10 11 11 12 13 13 14 14 15 15 16 14 10 9 11 12 18 20 27 12 7 8 10 9 10 14 15 13
19 17 18 18 19 19 20 22 24 24 23 23 23 23 21 19 18 18 16 16 17 16 15 13 10 9 11 11 9 7 6 6 5 5 5 4 4 3 2 2 3 3 4 4 5 6 6 5 5 5 5 5 6 6 7 8 10 10 11 11 12 12 13 13 14 15 15 15 11 9 10 10 10 15 24 26 7 8 8 9 8 9 12 11 11
19 15 16 18 17 18 19 21 23 25 25 24 22 20 20 20 18 17 16 17 18 17 15 14 11 9 10 11 10 9 7 6 5 4 4 5 4 4 3 3 3 3 3 4 4 5 5 5 5 6 6 6 7 8 9 9 10 11 12 12 12 12 12 13 14 15 15 12 9 10 9 9 8 12 29 22 10 9 7 12 9 8 9 9 12
15 14 15 15 16 17 18 18 19 22 23 23 22 20 19 19 20 18 15 17 17 17 16 14 13 11 10 10 11 10 8 6 5 5 5 5 5 4 4 3 3 3 3 3 4 4 5 5 6 7 7 8 8 9 10 11 12 12 12 13 12 12 13 13 14 15 15 11 7 11 11 8 8 8 31 23 13 10 5 8 11 9 9 8 8
14 14 15 15 15 18 16 16 17 19 22 23 22 20 18 20 21 18 14 16 17 17 16 17 17 12 10 10 11 10 9 7 5 5 5 5 5 4 4 4 4 4 4 4 4 4 5 5 6 7 8 8 9 10 11 11 12 12 12 12 12 12 12 12 12 13 14 12 8 9 13 8 7 7 26 27 15 9 7 7 10 13 12 12 11
13 15 15 14 14 17 17 16 16 18 21 21 20 17 16 18 17 13 11 15 17 16 15 16 16 13 10 9 9 9 8 7 6 6 6 5 5 4 4 4 4 4 4 3 4 4 5 6 6 7 8 9 9 10 10 11 11 12 12 12 12 12 12 10 11 11 10 9 9 7 8 13 8 7 21 29 16 11 9 9 7 12 11 13 12
15 14 14 14 15 16 14 13 13 14 15 15 15 14 14 13 9 5 5 13 14 14 15 15 14 13 12 10 10 9 8 7 7 6 6 6 5 5 5 4 4 4 3 3 3 4 5 6 7 7 8 9 9 10 10 11 12 12 13 12 12 12 11 10 10 12 10 7 5 5 3 11 10 9 18 23 23 15 12 10 8 12 14 14 13
16 15 14 13 15 15 13 11 9 9 10 8 8 10 12 7 4 3 9 13 13 14 14 12 14 15 14 11 10 9 8 8 8 7 6 6 6 5 5 5 5 4 4 4 4 4 5 5 6 7 8 9 9 10 11 11 13 14 13 13 12 11 10 9 8 11 9 7 10 7 5 6 11 13 18 17 17 18 15 11 12 11 13 13 13
16 15 14 12 11 14 12 10 8 7 7 5 5 5 6 5 1 6 12 13 13 13 12 12 13 14 14 12 11 10 9 10 10 8 8 6 6 6 5 5 4 4 4 4 5 5 5 5 6 7 8 9 9 10 11 11 11 12 12 11 10 9 7 7 8 9 9 6 10 6 4 9 13 18 17 17 16 14 13 14 14 12 12 12 11
16 14 13 12 10 13 12 9 8 9 7 5 5 5 4 5 6 10 12 12 12 11 11 11 12 12 12 11 10 10 11 11 11 10 7 6 6 6 5 5 4 4 4 4 4 5 5 5 6 6 7 8 8 9 10 10 10 10 10 9 8 6 4 6 9 7 7 7 7 7 5 7 16 20 18 17 16 14 14 14 13 13 13 12 12
14 15 13 12 11 10 13 9 8 10 8 7 6 5 5 5 7 9 11 12 12 11 10 10 10 11 10 10 10 10 10 10 10 10 8 6 6 6 6 5 5 4 4 4 4 4 4 4 4 5 5 6 7 8 9 10 10 9 9 8 7 6 5 5 4 8 7 6 7 4 5 5 19 21 18 17 16 15 15 14 13 13 13 14 13
14 15 14 13 11 11 10 9 9 11 9 7 6 5 4 4 9 10 11 11 11 10 9 8 8 9 9 9 9 10 9 8 9 9 9 5 7 6 6 5 5 5 4 4 4 4 3 4 4 5 5 6 6 7 9 9 10 9 9 9 8 7 7 6 5 9 9 8 4 4 5 6 20 19 17 17 16 15 15 14 14 13 13 14 14
13 14 15 13 12 11 10 8 8 11 10 8 6 4 3 4 10 12 10 10 11 9 8 7 7 7 8 8 9 9 8 8 8 6 6 4 6 6 6 5 5 4 4 4 4 3 3 4 4 4 6 6 7 7 9 9 10 9 9 9 9 9 8 8 6 8 9 9 5 3 7 11 18 20 18 16 16 14 13 12 13 13 13 13 14
13 13 13 12 11 10 9 9 8 7 7 7 6 5 5 9 12 12 10 10 9 10 7 6 6 7 6 7 7 7 7 8 7 6 4 3 6 6 6 5 5 4 4 3 3 3 4 5 5 5 5 6 6 7 8 8 8 8 10 10 11 11 10 9 8 8 8 7 6 6 9 8 20 19 18 16 15 14 13 11 11 12 12 13 14
11 11 13 13 11 10 10 9 7 7 7 7 7 5 6 10 12 11 11 9 8 8 4 4 5 6 5 5 5 5 6 7 6 5 3 3 6 6 5 4 4 4 2 2 2 3 4 5 6 5 6 7 8 9 9 8 9 11 12 13 12 11 11 10 9 10 11 6 7 8 9 10 19 18 16 17 16 15 14 13 13 11 11 12 12
8 9 10 10 10 10 10 9 8 8 8 8 8 7 7 10 12 10 8 7 7 6 3 4 5 5 5 4 4 5 5 5 4 5 5 6 5 5 6 4 4 2 2 1 3 3 5 5 7 7 8 10 9 10 9 10 10 12 13 13 12 12 9 10 8 9 10 7 7 6 9 16 21 17 16 17 17 16 15 15 15 14 12 11 12
2 3 4 5 6 7 8 8 8 9 9 9 8 9 8 8 10 9 8 6 5 5 2 4 5 4 4 4 4 6 7 8 6 6 7 5 4 5 6 5 3 3 3 3 4 6 6 8 8 9 10 10 10 9 10 11 13 14 14 14 13 9 8 7 8 9 9 8 9 8 5 20 21 19 19 19 17 17 17 17 17 16 15 14 12
5 5 6 7 6 4 4 6 6 8 8 8 9 9 7 5 7 7 5 5 4 4 5 5 5 6 3 5 7 8 8 8 6 6 5 5 6 8 6 6 5 6 5 6 6 8 9 10 11 12 12 12 11 7 9 13 15 15 16 16 12 10 9 9 10 10 10 9 11 12 12 16 20 20 20 21 20 18 17 17 17 17 16 15 14
5 6 7 8 6 5 5 5 5 6 5 6 8 8 6 7 7 8 8 6 7 6 6 6 8 7 8 8 10 8 7 7 6 6 5 7 7 9 9 9 8 8 8 8 9 11 12 12 14 14 13 13 9 8 10 12 13 17 16 15 12 10 10 11 10 11 11 12 12 13 10 14 19 20 20 22 22 21 20 19 19 18 17 17 16
7 6 6 6 6 5 6 5 4 3 1 4 6 6 7 8 8 8 9 8 8 8 8 9 10 9 9 7 7 6 5 5 3 5 7 5 6 10 11 10 10 10 10 8 10 12 14 14 14 14 10 9 8 9 10 9 10 12 14 14 13 11 11 10 8 9 9 11 10 15 17 19 20 21 21 22 23 23 22 22 21 21 20 19 18
7 6 5 5 7 6 5 5 4 2 0 3 5 6 7 8 8 9 8 8 10 11 10 9 9 9 8 8 6 6 4 5 7 6 5 6 5 5 5 4 4 5 9 5 5 7 8 7 7 8 5 7 10 9 10 10 8 12 14 12 10 10 10 9 6 7 10 9 10 18 20 23 22 22 22 22 23 23 22 22 22 21 21 20 19
9 8 8 7 8 7 6 3 4 2 0 3 5 7 8 9 9 9 9 9 10 10 10 8 9 7 7 7 5 4 5 6 6 5 3 6 6 5 5 4 4 5 6 4 5 5 5 6 7 5 5 4 4 8 7 9 11 10 9 7 10 10 6 4 4 1 4 5 5 8 15 22 22 23 23 23 23 22 22 22 23 23 22 20 19
9 9 9 8 8 8 7 4 2 1 1 2 6 7 8 10 10 10 9 8 9 9 8 7 8 7 6 5 4 3 5 5 5 4 5 4 6 6 7 6 6 5 5 5 6 6 5 6 5 3 4 3 6 7 6 7 8 11 9 8 10 11 5 3 6 8 6 7 11 16 16 17 20 23 23 23 23 23 21 22 22 23 22 20 18
10 11 10 10 9 10 8 8 4 2 1 2 4 6 8 9 10 10 9 9 9 9 7 9 6 6 5 5 4 4 4 7 7 5 5 4 5 7 7 5 5 6 6 7 7 7 6 4 4 5 4 4 8 9 9 11 10 10 8 5 6 11 15 8 8 8 9 11 12 16 18 21 25 23 23 24 24 24 23 21 22 24 23 21 19
12 10 9 9 12 10 9 7 7 4 2 3 2 5 7 9 10 10 10 9 10 9 8 9 8 8 6 5 5 4 6 8 6 5 5 3 5 4 8 8 6 4 7 4 3 5 3 9 5 7 2 5 9 7 9 9 7 9 14 14 8 5 10 15 16 16 17 15 15 13 14 19 22 21 23 22 17 18 21 21 21 24 25 23 20
13 13 10 6 7 10 9 9 7 4 4 4 6 7 7 8 8 9 9 10 8 8 9 10 9 7 7 7 5 8 9 7 5 5 5 5 5 4 4 3 5 3 5 3 3 5 3 8 11 10 9 10 5 6 5 4 7 6 9 8 10 10 15 19 19 18 19 16 12 11 7 17 22 24 26 25 12 7 11 14 18 22 25 24 22
12 13 13 9 7 9 9 7 8 5 5 4 6 7 8 9 8 8 9 9 7 9 9 8 8 7 9 7 8 9 8 4 5 8 6 8 4 2 2 2 5 4 3 2 6 0 2 7 7 15 16 11 11 12 9 10 11 15 14 12 17 20 22 20 20 18 15 12 11 12 13 12 20 22 23 34 31 28 23 23 21 20 22 24 22
13 13 11 10 12 11 12 10 10 7 5 5 7 7 8 9 8 8 9 7 8 8 8 7 7 7 9 8 9 7 7 11 11 7 5 7 3 4 1 2 2 2 2 4 5 3 2 3 2 4 6 8 12 14 14 15 19 20 22 22 19 28 28 25 23 19 16 15 14 15 18 16 16 18 19 25 32 30 31 28 23 21 21 23 22
9 15 13 14 14 13 12 11 11 9 7 7 7 6 6 7 7 8 9 8 9 8 8 7 7 8 11 7 8 5 9 7 9 9 8 6 3 5 1 1 3 1 4 1 6 5 1 3 4 4 6 6 4 4 2 8 11 11 9 14 20 20 19 19 18 18 18 18 19 19 20 18 18 21 20 20 23 24 23 21 21 21 20 20 21
6 9 15 16 12 11 11 9 12 11 9 7 9 7 6 7 7 7 8 9 8 8 7 8 8 9 8 8 7 6 6 8 8 7 8 7 5 4 2 4 2 3 3 5 3 1 2 3 2 1 7 5 5 5 4 7 7 8 8 13 13 13 14 16 16 16 15 14 17 17 15 15 15 16 16 19 21 21 20 20 20 19 18 18 19
5 8 10 11 14 15 12 10 12 12 10 9 9 8 6 8 7 7 9 8 8 7 9 9 8 9 9 8 7 6 6 9 9 10 7 8 5 4 2 3 1 3 2 3 1 1 4 4 2 3 2 4 6 7 4 6 7 7 9 11 12 12 13 15 18 16 14 14 15 16 17 16 14 16 15 15 20 17 16 18 21 20 19 18 18
4 6 8 12 10 14 13 14 14 14 12 11 9 8 8 6 7 6 11 5 8 7 7 6 7 8 9 10 7 8 7 8 9 10 9 6 5 4 3 1 4 5 4 3 3 3 4 1 4 4 3 3 3 3 7 10 11 10 13 12 13 13 14 15 16 14 13 12 12 13 15 15 18 18 12 12 18 21 17 14 18 22 23 24 23
6 3 9 10 8 14 9 15 14 14 13 13 10 9 9 9 8 6 10 7 8 8 7 9 9 9 9 11 9 9 9 9 10 11 9 7 5 5 4 1 5 1 3 2 2 1 2 3 3 2 3 3 2 1 3 10 10 11 14 16 13 14 13 13 13 12 12 12 11 13 13 15 23 21 14 14 18 20 19 18 21 23 21 20 23
4 4 7 7 8 8 8 9 13 11 10 12 9 9 8 9 8 7 8 7 7 9 8 11 7 9 10 11 11 10 10 10 10 10 9 9 7 4 2 3 3 2 2 2 3 3 1 1 3 4 3 4 2 2 4 6 9 12 11 12 13 14 14 12 13 13 12 11 12 13 15 15 22 24 18 17 20 20 20 18 17 22 24 24 22
4 4 7 6 12 5 2 11 12 12 10 12 9 9 9 9 8 7 8 10 9 9 9 9 8 10 7 12 12 10 11 11 10 9 8 8 9 7 5 6 4 3 4 3 2 2 4 3 3 2 3 3 3 4 3 7 7 6 10 10 10 13 13 14 14 12 10 10 12 12 14 16 21 24 20 20 21 22 21 17 16 18 20 23 24
8 6 13 16 13 6 6 5 7 10 12 12 10 8 8 8 8 6 10 9 8 9 8 8 8 8 7 12 11 10 11 11 10 9 8 9 8 6 5 4 3 4 4 4 2 1 1 0 3 3 2 2 3 3 4 5 6 7 7 9 10 11 11 11 13 12 11 12 12 13 15 16 19 22 22 21 22 21 21 18 17 20 23 24 26
17 18 16 14 6 6 8 6 2 6 8 11 9 8 8 8 6 6 9 9 8 7 6 6 5 6 7 8 10 8 11 10 10 10 9 8 9 9 7 6 4 3 3 2 3 3 6 5 1 2 3 3 3 0 6 8 7 5 7 10 11 10 10 13 14 11 12 14 14 14 14 16 18 21 21 22 22 23 22 17 18 22 25 24 25
23 9 9 12 7 6 6 4 2 2 6 8 8 7 8 8 7 6 8 7 8 7 7 6 3 5 9 13 8 8 9 9 9 10 10 9 8 8 8 7 7 6 7 5 5 6 3 3 3 3 3 5 3 5 3 2 5 5 8 9 10 12 11 11 12 13 14 13 14 16 14 17 18 20 20 22 22 22 22 18 21 25 27 29 29
17 10 14 15 11 9 7 4 3 4 4 5 5 5 6 8 7 6 6 9 8 6 5 6 5 4 6 10 8 9 7 7 7 9 9 8 7 7 7 7 6 5 5 5 5 3 4 5 4 4 4 4 4 4 3 5 7 6 9 9 9 9 10 8 11 12 13 13 13 13 14 15 16 20 21 18 20 20 17 17 22 28 31 32 30
17 15 15 12 12 10 9 7 4 4 5 5 4 5 5 7 7 8 5 12 9 10 9 9 4 3 5 6 9 7 5 4 4 5 6 8 7 7 7 8 7 6 5 4 5 5 4 5 6 4 1 6 5 3 4 8 6 8 8 7 8 7 6 6 7 10 11 13 14 14 13 13 6 9 13 15 17 15 16 19 25 29 32 32 31
13 16 14 8 5 7 8 9 5 3 5 6 6 5 6 7 7 6 9 9 11 9 8 7 7 9 10 7 4 5 5 3 5 3 5 7 7 7 8 8 7 6 5 4 5 7 6 6 5 5 5 5 7 2 10 9 5 6 7 6 6 5 4 7 8 10 11 13 16 15 14 13 14 13 14 10 11 11 17 24 24 27 31 31 30
8 10 11 6 3 4 8 8 6 5 5 5 5 7 5 7 8 7 6 8 9 8 6 6 6 9 9 9 9 5 3 3 4 4 3 5 6 6 7 8 6 6 7 6 6 6 7 8 5 4 5 4 4 4 7 5 3 3 2 7 10 7 7 8 8 7 9 11 14 15 17 18 21 22 19 14 12 12 20 24 20 22 28 31 27
8 6 10 7 7 6 8 9 7 6 5 6 7 6 6 5 8 8 7 8 7 8 9 9 9 7 10 9 9 9 9 4 1 2 4 6 6 6 7 6 6 8 6 6 8 9 8 7 8 6 6 2 6 6 6 5 2 5 9 9 10 8 8 7 6 6 8 11 13 13 15 12 14 23 23 18 17 17 17 17 16 11 22 27 24
8 9 9 8 8 7 9 10 7 6 6 7 8 6 5 5 6 7 6 7 7 6 7 6 8 10 8 6 7 9 8 9 7 4 3 3 5 7 7 6 6 5 3 5 7 8 8 4 4 6 6 4 4 5 5 3 5 4 5 7 10 10 5 3 3 6 9 10 12 11 13 13 14 14 13 15 17 15 15 15 12 11 18 25 24
6 7 11 8 7 8 8 9 9 7 7 8 9 8 4 4 4 6 6 6 8 6 6 6 6 6 5 5 6 6 6 6 9 8 6 4 5 7 7 6 5 6 6 6 6 7 8 6 4 6 6 6 5 5 3 3 5 5 5 4 4 3 3 6 7 8 11 10 12 12 13 14 16 14 9 9 10 14 13 11 8 9 17 24 23
6 6 9 9 10 10 9 11 11 10 10 9 10 9 6 4 4 5 5 6 8 7 7 5 4 3 2 2 4 7 8 8 8 10 9 5 5 5 5 3 4 4 5 6 6 7 7 6 4 7 5 4 3 2 4 5 6 3 3 6 4 3 3 6 8 8 9 11 13 13 13 10 11 12 9 6 5 9 11 10 10 9 12 19 22
6 6 9 10 12 13 11 11 10 12 13 12 11 9 8 5 5 6 4 4 6 10 7 4 3 2 1 2 4 6 9 10 10 10 9 7 4 5 3 3 3 4 5 6 8 8 7 7 8 6 4 4 4 3 5 5 3 3 3 4 4 4 7 7 6 7 10 10 12 12 11 11 9 8 9 8 5 5 7 8 4 6 12 18 22
Wind_Direction
263 268 265 270 269 272 272 273 272 273 272 269 262 259 259 264 262 260 260 258 261 264 262 262 262 260 267 275 276 279 278 286 289 287 293 305 312 316 320 324 330 340 341 339 332 325 322 300 297 297 300 301 305 309 307 310 309 310 311 307 304 301 303 302 298 301 305 299 298 307 302 299 294 287 282 273 272 269 277 276 242 272 264 265 267
278 272 271 267 274 275 276 277 279 281 278 273 263 256 255 258 259 261 262 259 259 258 260 262 264 265 271 274 277 282 279 267 268 285 291 301 306 307 312 317 331 343 349 341 335 329 326 314 306 308 305 308 311 310 311 311 310 311 309 307 307 307 304 303 303 301 301 306 306 302 304 302 303 298 291 283 276 273 254 187 129 299 280 282 277
276 275 272 271 276 277 278 281 284 285 284 278 271 262 260 258 258 260 259 257 254 252 251 251 260 268 271 273 274 276 275 262 260 271 282 290 297 292 292 311 328 339 337 333 336 336 329 325 316 315 312 312 315 313 315 310 311 306 307 308 306 306 304 301 305 307 304 304 304 304 304 302 299 301 297 290 273 257 261 214 304 290 304 295 293
278 275 272 274 275 276 277 280 283 283 280 282 275 270 264 256 255 256 259 259 257 250 244 238 247 261 270 274 271 271 273 269 268 270 275 274 275 275 295 314 318 325 327 333 334 345 337 329 320 316 320 318 319 318 313 312 308 308 305 307 305 303 303 306 303 306 307 307 307 310 319 312 305 305 299 282 272 332 312 254 267 299 303 301 297
278 274 276 273 273 271 277 279 280 281 282 281 279 279 272 261 252 254 260 258 255 251 247 242 242 249 262 269 275 272 270 271 273 270 263 255 255 261 274 295 311 316 322 336 344 346 344 329 327 324 323 325 321 319 314 310 310 308 308 305 305 303 304 305 308 304 308 310 319 306 315 310 306 305 299 277 304 358 320 275 279 303 304 304 304
278 278 279 276 274 276 278 282 280 276 276 274 279 284 283 266 257 258 260 258 256 253 250 244 240 244 256 264 270 274 271 265 267 259 250 231 214 226 255 279 297 317 327 339 338 340 342 338 334 333 328 330 324 317 315 313 310 310 308 305 302 301 305 307 310 311 307 315 328 329 315 306 303 302 290 277 336 20 337 317 304 283 263 263 287
283 278 279 275 277 280 283 285 279 274 272 275 278 277 274 263 260 257 260 263 256 252 254 249 238 236 251 261 264 266 272 274 270 255 234 216 208 226 244 266 285 298 309 322 326 332 336 341 339 335 331 327 326 321 319 313 308 306 303 303 301 307 310 313 314 315 313 317 347 319 301 294 291 296 290 292 18 30 355 331 327 298 278 272 269
275 274 279 280 278 285 290 292 282 273 272 274 275 274 268 261 254 249 248 254 250 250 255 257 254 246 248 258 265 267 265 263 264 249 224 217 217 224 233 249 264 281 293 312 313 320 330 334 334 330 330 326 324 323 319 314 308 305 303 302 308 311 316 316 318 317 321 323 346 310 289 292 286 292 298 316 19 29 7 323 333 330 328 323 286
276 277 278 275 279 291 294 294 292 282 279 276 274 272 269 266 255 234 229 229 230 241 248 254 255 249 240 243 254 259 260 258 248 232 223 219 224 231 241 247 255 270 281 294 313 322 319 327 329 324 325 324 321 318 314 310 308 307 309 310 313 318 316 318 316 318 317 328 343 296 294 306 292 315 306 321 7 24 20 4 347 340 349 338 334
286 275 278 279 285 297 298 296 295 291 287 281 274 272 274 274 261 228 187 208 214 224 235 248 253 252 243 237 244 250 252 244 227 213 213 215 222 235 243 252 257 263 274 287 305 321 324 320 322 323 321 323 321 317 314 314 315 314 314 319 323 321 321 320 312 309 312 305 311 289 311 316 320 297 313 320 350 14 16 12 352 339 339 338 339
285 274 274 279 291 298 298 298 299 298 299 290 275 269 265 261 245 231 160 214 213 209 220 237 250 255 249 239 239 240 236 226 214 210 208 216 221 228 241 245 252 261 276 294 310 321 322 320 319 320 320 319 320 319 322 325 323 323 322 321 325 323 319 316 314 307 305 313 272 294 327 329 303 295 312 321 336 359 1 8 10 343 336 335 334
270 272 275 279 295 298 304 304 300 302 308 306 271 258 256 230 283 242 228 225 218 209 214 224 236 244 245 244 237 227 220 214 207 205 212 219 226 233 241 251 259 273 291 303 306 312 317 318 318 320 322 323 326 327 332 334 332 330 329 325 326 325 326 317 310 305 322 329 326 353 337 340 309 302 315 323 335 350 359 358 355 344 333 330 328
273 274 276 281 288 297 303 304 296 294 300 286 240 233 266 294 187 256 231 225 219 215 214 218 224 236 241 240 233 221 210 201 199 203 212 222 238 245 247 257 265 282 291 297 299 302 306 315 319 323 328 330 332 337 336 335 334 332 331 332 329 332 335 332 324 320 320 334 291 350 308 339 314 311 324 329 339 353 356 352 350 345 336 331 325
271 276 275 279 278 291 296 296 293 288 285 266 243 206 227 250 250 244 235 225 222 220 217 218 224 233 241 240 236 226 214 201 197 196 214 221 242 251 256 259 270 280 285 292 296 300 304 312 322 322 327 334 337 340 342 338 336 340 339 336 336 340 351 356 0 313 293 297 285 281 339 341 314 321 327 334 343 351 354 353 349 348 344 339 329
275 273 272 273 279 279 291 292 286 280 267 251 245 226 212 209 245 240 237 232 226 221 221 218 225 232 232 227 227 233 217 207 201 197 198 228 243 250 256 262 276 281 285 290 293 298 298 303 312 324 333 337 345 345 344 341 342 348 347 345 353 355 17 6 2 313 311 284 277 270 305 16 323 325 331 339 344 351 353 351 350 349 348 337 330
278 278 278 277 275 273 272 279 283 286 281 260 253 264 213 191 232 238 238 236 233 227 222 223 227 228 224 220 220 225 222 218 211 203 183 218 249 257 264 279 285 289 290 295 297 297 302 304 325 345 345 347 351 350 344 348 349 351 356 360 8 17 26 27 359 327 328 316 311 278 340 349 330 328 332 341 345 350 352 351 346 348 347 338 333
275 279 277 280 282 274 270 275 274 278 277 270 266 275 266 225 229 234 234 241 242 225 222 229 238 238 225 217 215 222 223 225 224 214 198 225 261 265 283 291 293 298 302 300 305 308 327 341 358 356 3 4 0 358 353 355 356 359 7 14 20 21 29 28 15 332 335 343 353 346 349 338 335 329 333 341 345 346 348 351 346 345 349 339 334
276 278 281 287 280 275 276 274 271 262 255 259 269 261 241 243 243 228 239 239 239 239 210 233 242 253 243 217 215 222 220 225 230 226 235 222 256 268 283 293 305 300 309 312 327 337 359 13 8 15 16 21 11 13 3 356 5 11 17 24 30 28 25 25 11 330 349 346 340 358 345 337 332 332 333 338 340 341 341 346 343 344 347 342 336
284 284 284 283 278 280 280 270 265 259 250 234 227 245 264 258 250 242 237 239 243 254 239 242 251 249 253 242 227 227 228 233 239 260 264 252 258 274 279 298 301 310 312 340 348 19 18 22 33 26 33 30 27 19 15 10 15 21 18 25 30 35 30 9 3 337 339 345 346 2 341 343 331 333 335 338 338 339 336 338 337 340 341 339 336
286 290 287 284 280 274 269 268 263 260 244 231 232 225 242 256 256 254 249 241 243 234 251 253 252 247 241 240 248 216 235 239 283 280 295 272 290 309 313 307 313 329 356 8 38 48 38 44 43 45 40 41 32 26 23 27 28 31 30 27 31 33 21 7 357 325 335 341 358 10 1 350 332 334 343 342 338 337 335 337 335 336 336 335 332
7 356 352 344 320 289 280 266 269 266 254 242 231 226 218 251 259 276 277 265 252 255 234 246 245 235 223 230 224 200 196 208 233 248 278 272 319 323 330 329 343 2 18 41 50 49 51 50 55 53 49 42 39 35 35 34 33 31 31 32 27 19 18 15 351 359 334 354 349 4 38 337 335 342 350 345 340 337 339 339 337 335 337 335 330
33 32 33 21 9 358 328 295 274 273 256 245 234 221 207 227 230 244 244 249 249 246 211 205 226 204 226 202 191 194 193 211 220 266 268 297 331 333 344 356 6 25 25 33 44 48 47 50 55 54 47 43 43 26 21 29 32 31 27 25 14 6 14 8 357 350 351 352 339 11 12 349 341 352 356 348 344 341 341 339 336 337 338 336 329
354 3 3 7 19 17 8 334 308 279 261 250 239 219 203 193 222 221 216 235 230 221 199 205 201 200 195 197 193 188 199 198 226 272 282 321 333 345 356 4 21 27 27 31 43 46 46 52 54 53 47 47 41 20 20 8 7 22 25 18 7 9 7 9 6 349 353 354 359 6 358 356 351 354 359 352 347 346 344 340 338 337 336 331 323
345 348 351 6 6 13 7 352 336 320 199 194 215 207 188 199 213 217 216 211 220 212 209 205 206 198 207 195 200 200 214 203 227 306 302 310 323 353 3 13 23 25 28 28 43 50 51 55 59 59 51 37 24 16 11 12 5 2 6 9 7 13 13 9 5 358 352 0 359 359 359 359 353 356 357 354 351 349 347 343 341 340 339 333 323
351 344 349 6 2 3 3 355 353 353 205 170 182 196 201 204 214 214 216 209 217 216 205 209 210 207 205 199 202 224 225 219 230 231 256 281 309 328 347 5 14 10 25 19 24 40 40 48 54 56 38 39 27 351 353 8 10 5 7 3 357 359 17 3 3 3 4 1 357 351 353 357 355 356 354 352 351 351 349 345 344 345 345 342 334
353 351 353 357 5 358 5 7 9 4 98 181 198 208 213 204 209 211 210 208 216 216 209 208 212 218 207 202 199 220 225 232 236 241 254 299 312 329 336 357 7 6 357 3 23 25 21 30 38 22 7 349 351 337 4 9 4 2 355 359 351 355 330 18 304 186 55 332 26 340 1 357 357 355 351 348 349 350 352 349 348 350 352 351 352
341 346 351 354 360 358 348 4 16 25 73 178 201 207 199 200 204 208 210 205 212 227 211 211 211 220 206 203 224 206 241 244 259 269 272 299 318 334 343 356 354 359 344 345 24 16 16 21 16 346 307 321 321 353 22 25 3 352 351 6 352 336 311 38 2 9 24 5 10 23 13 1 8 357 350 346 346 350 353 354 352 355 356 357 1
338 338 348 350 352 349 350 345 351 352 173 194 208 202 190 202 203 212 199 210 215 216 221 224 210 214 208 207 205 224 245 258 251 245 272 300 324 341 330 354 355 353 344 352 13 9 352 351 262 214 272 339 350 354 19 10 5 343 340 44 11 340 336 10 14 7 18 18 23 28 20 14 9 355 349 345 345 349 352 354 355 356 356 357 2
330 331 347 342 347 336 350 337 328 322 258 239 222 198 192 201 208 206 198 212 206 211 214 229 223 216 213 189 216 201 244 255 263 285 271 303 311 318 321 351 3 330 320 354 358 311 308 307 312 293 335 19 8 10 21 7 348 350 341 3 33 352 342 9 21 9 20 20 12 18 29 5 359 356 351 339 336 348 350 351 353 355 353 354 356
326 330 324 336 335 325 343 329 321 308 264 251 202 199 204 204 209 207 196 209 193 218 224 223 222 223 227 213 215 203 223 240 247 266 299 290 271 287 305 338 321 303 298 335 268 304 357 275 299 327 346 20 14 50 18 349 319 350 341 358 331 2 21 24 26 18 18 17 2 353 10 358 354 355 345 320 327 13 351 2 1 353 349 349 349
328 327 324 327 321 332 324 323 310 284 258 253 216 215 209 211 215 199 204 208 192 223 223 221 228 221 230 230 213 233 190 226 243 237 245 250 250 279 261 228 290 310 284 308 288 185 267 326 327 337 349 341 5 27 6 322 314 10 349 22 350 353 22 23 22 21 17 8 0 344 335 340 354 354 353 335 349 359 7 18 16 360 352 352 350
317 322 315 326 329 334 317 327 316 301 289 280 228 229 221 212 213 200 210 215 210 218 230 225 225 216 240 235 237 214 207 210 204 241 241 255 252 264 258 314 250 254 313 278 294 318 217 260 318 343 327 342 352 355 357 336 348 3 1 7 355 355 10 9 8 6 7 4 358 349 332 337 340 354 359 353 351 1 3 8 10 6 1 358 352
307 315 322 332 335 323 318 326 316 309 307 298 269 257 236 238 222 210 218 210 221 217 223 236 229 210 236 229 236 220 222 215 214 201 205 249 221 284 290 267 276 328 251 84 247 223 197 8 324 329 313 308 327 318 323 311 350 356 323 351 11 2 351 345 354 358 3 3 357 347 336 335 336 334 357 9 10 8 9 10 12 11 5 6 358
309 306 331 336 324 316 324 323 320 322 307 297 271 262 246 252 237 234 222 223 228 227 223 229 214 235 228 232 245 230 227 204 226 217 205 216 217 218 196 292 26 307 262 221 229 316 5 285 270 293 299 323 306 308 337 317 3 341 346 7 0 351 343 348 355 3 6 357 339 333 338 349 352 338 350 15 24 29 24 24 23 21 11 13 7
313 336 334 325 320 322 321 326 324 328 317 307 293 286 257 249 249 233 245 223 231 229 228 215 230 229 234 237 238 242 219 214 201 225 212 195 198 247 208 189 212 269 251 287 266 135 195 216 228 277 277 308 304 310 331 331 347 329 10 18 9 1 357 360 0 2 357 349 351 348 358 1 328 324 347 6 13 20 21 23 28 29 32 28 26
314 325 340 319 337 323 339 325 336 326 325 316 299 291 276 261 250 246 248 229 233 229 232 238 248 241 240 250 231 242 235 217 222 213 202 210 196 235 264 168 234 211 236 211 262 212 210 211 217 208 242 236 266 301 335 338 337 339 36 31 22 21 18 6 2 2 0 7 4 12 0 350 329 335 341 12 10 13 24 25 28 28 31 29 27
290 360 322 325 333 320 339 326 334 327 325 320 306 295 277 265 255 247 263 248 240 235 239 240 233 247 246 258 250 244 241 236 222 225 204 193 196 186 262 258 266 249 195 191 280 266 215 254 297 313 255 269 265 357 346 343 347 5 36 29 33 36 30 13 10 25 26 32 14 16 357 350 349 352 352 19 23 23 26 23 29 36 36 39 36
285 297 304 319 308 319 341 327 317 318 310 305 304 294 289 279 277 257 263 256 259 241 239 250 245 248 250 254 262 252 247 243 233 227 212 192 196 211 187 264 270 269 267 200 192 215 274 186 283 261 250 244 325 30 29 36 15 357 29 32 31 29 26 18 26 36 39 32 11 16 355 350 360 11 16 28 24 27 29 22 29 40 43 42 42
272 256 262 253 238 221 36 298 323 316 296 298 301 295 293 287 282 293 274 258 243 245 231 232 232 244 254 257 258 253 251 243 242 232 222 207 194 200 201 222 206 242 244 208 231 220 197 165 222 213 234 330 37 47 37 37 63 13 17 38 26 28 25 21 23 29 36 27 9 12 5 2 8 20 31 32 23 30 33 16 18 29 39 49 51
243 241 253 227 231 207 158 245 307 304 307 298 306 305 306 299 297 285 271 262 256 245 245 242 245 233 235 253 257 248 245 241 237 237 227 206 204 212 217 234 222 211 216 202 207 283 328 100 193 181 175 87 54 48 49 52 33 339 24 33 35 38 34 21 16 23 25 22 9 14 18 16 15 22 36 39 32 39 42 27 31 38 41 49 58
248 210 229 271 306 233 218 242 185 307 316 313 316 320 310 300 291 295 279 278 256 255 255 252 247 251 247 255 258 245 238 242 229 234 227 213 200 195 224 207 222 215 218 187 174 181 222 180 208 317 121 97 97 69 56 55 38 18 24 45 49 48 40 19 15 16 17 20 13 19 23 25 18 28 35 44 36 40 44 34 37 45 48 50 55
251 247 271 278 289 282 255 259 264 270 320 328 328 328 308 303 304 296 285 276 262 247 244 243 253 257 242 252 248 241 242 235 234 227 227 223 211 199 209 218 201 193 199 193 167 187 170 163 158 160 32 64 76 62 60 83 63 17 41 44 46 34 39 21 11 2 17 17 21 20 29 29 20 25 31 40 38 41 43 33 44 50 51 52 54
285 317 280 281 280 280 280 265 263 314 311 337 326 316 321 312 311 287 278 249 240 255 236 236 199 233 272 269 261 243 235 249 235 237 230 223 212 203 202 224 212 192 218 178 169 166 157 137 141 100 120 108 67 64 335 14 65 51 25 31 31 33 22 29 19 14 10 16 29 33 24 37 20 18 18 30 43 42 46 38 47 54 54 55 57
295 295 288 288 273 273 297 284 271 290 298 302 307 332 323 316 317 297 287 281 255 225 216 225 222 166 262 297 270 267 262 267 262 247 235 224 214 205 195 204 221 192 198 184 161 146 153 134 116 96 85 90 65 64 131 63 51 56 55 49 35 24 28 33 48 36 15 10 21 31 18 32 12 34 21 28 40 37 47 48 50 55 57 56 58
295 307 308 309 269 294 303 293 263 289 290 290 308 283 291 270 250 264 263 268 269 247 248 219 216 203 221 214 258 270 265 244 248 228 213 226 219 207 198 199 220 195 189 180 165 139 126 115 89 137 83 81 94 57 48 50 31 44 66 43 28 18 20 56 75 31 8 4 15 22 21 20 334 29 57 58 53 43 55 54 50 55 60 61 58
315 304 299 315 328 318 306 293 268 271 292 302 305 292 292 303 295 282 265 264 266 265 256 254 222 215 190 238 198 211 240 221 228 210 187 206 224 210 198 198 203 222 184 165 155 144 138 121 112 87 97 89 88 88 80 44 41 352 63 353 6 18 36 68 73 29 21 3 11 14 18 15 344 2 50 62 56 50 53 53 43 52 63 63 61
327 310 308 343 359 344 317 312 286 260 290 296 304 289 297 321 316 317 310 292 281 265 250 220 234 211 199 193 236 209 193 188 198 225 199 191 187 209 211 208 186 223 179 163 155 133 122 118 150 116 82 93 55 64 68 64 42 356 3 354 359 21 17 40 55 48 39 29 22 23 14 14 357 348 22 40 49 38 49 54 52 47 76 75 64
346 324 320 340 351 326 315 314 299 273 269 294 300 294 310 325 322 312 291 294 286 277 261 247 223 221 208 191 209 230 207 190 182 204 229 206 182 201 211 208 189 188 197 146 148 136 137 169 113 117 127 70 100 77 76 76 75 29 11 7 7 24 39 55 28 19 44 48 38 21 32 13 356 353 15 23 31 28 43 57 46 37 70 77 72
4 348 324 333 328 318 313 316 305 288 271 291 296 297 299 330 322 301 275 264 249 261 267 240 227 245 216 186 192 234 247 220 197 186 190 196 204 197 205 205 193 175 175 150 139 123 117 122 109 119 92 80 59 73 36 43 74 44 360 20 4 24 360 6 17 8 21 39 42 37 46 20 358 359 8 21 33 34 34 43 51 47 67 70 74
347 1 320 317 314 314 319 316 310 292 283 284 285 290 290 292 304 290 286 277 282 279 267 268 255 226 233 217 204 207 212 216 210 195 177 187 208 218 201 189 176 155 153 141 130 128 128 120 81 67 80 95 134 157 84 43 48 34 33 344 346 13 345 351 10 16 12 9 25 38 46 32 3 358 359 348 29 36 20 18 26 40 65 79 78
329 1 325 328 319 312 321 316 315 295 284 279 277 278 284 288 272 265 299 319 284 270 261 260 264 266 211 184 224 215 216 213 212 203 175 168 197 214 196 167 161 169 166 150 142 130 115 111 106 92 79 61 57 61 66 72 50 1 25 357 1 15 346 335 359 18 7 14 26 31 22 21 1 7 353 348 30 58 36 36 26 37 58 60 63